TimeEST,TemperatureF,Dew PointF,Humidity,Sea Level PressureIn,VisibilityMPH,Wind Direction,Wind SpeedMPH,Gust SpeedMPH,PrecipitationIn,Events,Conditions,WindDirDegrees,DateUTC
12:51 AM,39.0,33.1,79,30.36,6.0,NE,3.5,-,N/A,,Haze,50,2012-11-17 05:51:00
1:51 AM,37.4,32.0,81,30.35,6.0,NE,4.6,-,N/A,,Haze,40,2012-11-17 06:51:00
2:51 AM,37.9,33.1,83,30.36,6.0,NE,6.9,-,N/A,,Haze,50,2012-11-17 07:51:00
3:51 AM,37.9,33.1,83,30.37,6.0,NE,5.8,-,N/A,,Haze,40,2012-11-17 08:51:00
4:51 AM,37.9,32.0,79,30.38,6.0,NE,6.9,-,N/A,,Haze,50,2012-11-17 09:51:00
5:51 AM,39.0,33.1,79,30.39,6.0,NE,6.9,-,N/A,,Haze,40,2012-11-17 10:51:00
6:51 AM,37.9,33.1,83,30.41,6.0,NE,6.9,-,N/A,,Haze,50,2012-11-17 11:51:00
7:51 AM,39.0,32.0,76,30.43,5.0,NE,5.8,-,N/A,,Haze,50,2012-11-17 12:51:00
8:51 AM,44.1,32.0,63,30.44,5.0,ENE,11.5,-,N/A,,Haze,60,2012-11-17 13:51:00
9:51 AM,50.0,30.9,48,30.45,6.0,ENE,12.7,26.5,N/A,,Haze,70,2012-11-17 14:51:00
10:51 AM,51.8,30.2,44,30.42,7.0,ENE,17.3,25.3,N/A,,Clear,60,2012-11-17 15:51:00
11:51 AM,55.0,28.0,35,30.42,7.0,NNE,15.0,20.7,N/A,,Clear,30,2012-11-17 16:51:00
12:51 PM,57.0,28.0,33,30.39,7.0,NNE,10.4,17.3,N/A,,Clear,30,2012-11-17 17:51:00
1:51 PM,57.9,28.9,33,30.37,7.0,ENE,9.2,16.1,N/A,,Clear,70,2012-11-17 18:51:00
2:51 PM,59.0,28.9,32,30.35,7.0,NNE,8.1,-,N/A,,Clear,30,2012-11-17 19:51:00
3:51 PM,57.9,30.0,35,30.35,7.0,ENE,9.2,-,N/A,,Clear,60,2012-11-17 20:51:00
4:51 PM,55.4,28.4,36,30.35,7.0,NE,8.1,-,N/A,,Clear,50,2012-11-17 21:51:00
5:51 PM,48.9,28.0,44,30.38,9.0,NE,3.5,-,N/A,,Clear,50,2012-11-17 22:51:00
6:51 PM,46.9,28.0,48,30.39,9.0,NE,4.6,-,N/A,,Clear,40,2012-11-17 23:51:00
7:51 PM,46.9,28.0,48,30.39,9.0,ENE,8.1,-,N/A,,Clear,60,2012-11-18 00:51:00
8:51 PM,46.0,27.0,47,30.41,9.0,East,9.2,-,N/A,,Clear,80,2012-11-18 01:51:00
9:51 PM,46.0,27.0,47,30.41,9.0,ENE,6.9,-,N/A,,Partly Cloudy,60,2012-11-18 02:51:00
10:51 PM,45.0,26.1,48,30.40,9.0,ENE,6.9,-,N/A,,Clear,60,2012-11-18 03:51:00
11:51 PM,48.0,26.1,42,30.39,9.0,ENE,9.2,-,N/A,,Overcast,70,2012-11-18 04:51:00